Lefor, ND

8:33 AM MST on February 08, 2016 (GMT -0700)
Dickinson Municipal

Weather History for KDIK - March, 2013

Change the Weather History Date:

Monday, March 25, 2013

  Actual Average Record
Temperature  
Mean Temperature 20 °F 34 °F  
Max Temperature 29 °F 45 °F 77 °F (2007)
Min Temperature 11 °F 22 °F -13 °F (1975)
Degree Days  
Heating Degree Days 45 32  
Month to date heating degree days 1027 907  
Since 1 July heating degree days 7005 7201  
Cooling Degree Days 0 0  
Month to date cooling degree days 0 0  
Year to date cooling degree days 0 0  
Moisture  
Dew Point 11 °F    
Average Humidity 73    
Maximum Humidity 92    
Minimum Humidity 53    
Precipitation  
Precipitation T in 0.03 in 0.39 in (1963)
Month to date precipitation 0.34 0.51  
Year to date precipitation 0.42 1.14  
Sea Level Pressure  
Sea Level Pressure 30.37 in    
Wind  
Wind Speed 6 mph (WNW)    
Max Wind Speed 13 mph    
Max Gust Speed 16 mph    
Visibility 8 miles    
Events Snow    
T = Trace of Precipitation, MM = Missing Value Source: NWS Daily Summary

Daily Weather History Graph

Daily Weather History Graph

Search for Another Location

Airport or City:

Trip Planner

Search our weather history database for the weather conditions in past years. The results will help you decide how hot, cold, wet, or windy it might be!

Date:

Astronomy

Mar. 25, 2013 Rise Set
Actual Time 6:43 AM MDT 7:11 PM MDT
Civil Twilight 6:13 AM MDT 7:41 PM MDT
Nautical Twilight 5:37 AM MDT 8:17 PM MDT
Astronomical Twilight 5:00 AM MDT 8:55 PM MDT
Moon 5:42 PM MDT (3/25) 5:33 AM MDT (3/25)
Length of Visible Light 13h 28m
Length of Day
12h 27m
Waxing Gibbous, 97% of the Moon is Illuminated
Mar 25
Waxing Gibbous
Mar 27
Full
Apr 2
Last Quarter
Apr 10
New
Apr 18
First Quarter

Hourly Weather History & Observations

Time (MDT) Temp. Windchill Dew Point Humidity Pressure Visibility Wind Dir Wind Speed Gust Speed Precip Events Conditions
12:56 AM 12.0 °F 0.5 °F 8.1 °F 84% 30.42 in 4.0 mi NNW 8.1 mph - 0.00 in Snow Light Snow
1:56 AM 12.0 °F -0.4 °F 9.0 °F 88% 30.43 in 4.0 mi NW 9.2 mph - 0.00 in Snow Light Snow
2:14 AM 12.2 °F -1.0 °F 8.6 °F 85% 30.28 in 4.0 mi NW 10.4 mph - 0.00 in Snow Light Snow
2:56 AM 12.9 °F -0.2 °F 9.0 °F 84% 30.42 in 6.0 mi NNW 10.4 mph - 0.00 in Snow Light Snow
3:56 AM 12.0 °F -1.3 °F 9.0 °F 88% 30.40 in 4.0 mi NW 10.4 mph - 0.00 in Snow Light Snow
4:56 AM 12.0 °F 0.5 °F 9.0 °F 88% 30.42 in 6.0 mi WNW 8.1 mph - 0.00 in Snow Light Snow
5:56 AM 12.0 °F 0.5 °F 8.1 °F 84% 30.42 in 10.0 mi WNW 8.1 mph - 0.00 in   Overcast
6:30 AM 12.2 °F 0.7 °F 8.6 °F 85% 30.28 in 10.0 mi WNW 8.1 mph - N/A   Overcast
6:56 AM 10.9 °F -0.8 °F 8.1 °F 88% 30.43 in 10.0 mi WNW 8.1 mph - 0.00 in   Overcast
7:56 AM 10.9 °F -1.8 °F 8.1 °F 88% 30.45 in 6.0 mi WNW 9.2 mph - 0.00 in Snow Light Snow
8:56 AM 12.9 °F 2.6 °F 9.0 °F 84% 30.45 in 3.0 mi WNW 6.9 mph - 0.00 in Snow Light Snow
9:18 AM 12.2 °F 1.7 °F 8.6 °F 85% 30.30 in 1.2 mi WNW 6.9 mph - 0.00 in Snow Light Snow
9:22 AM 12.2 °F 0.7 °F 8.6 °F 85% 30.30 in 5.0 mi WNW 8.1 mph - 0.00 in   Scattered Clouds
9:56 AM 12.9 °F 6.9 °F 8.1 °F 81% 30.45 in 10.0 mi Variable 3.5 mph - 0.00 in   Clear
10:56 AM 17.1 °F 10.0 °F 10.0 °F 74% 30.44 in 10.0 mi West 4.6 mph - N/A   Clear
11:56 AM 19.9 °F 13.4 °F 12.0 °F 71% 30.43 in 10.0 mi WNW 4.6 mph - N/A   Clear
12:56 PM 21.9 °F 17.2 °F 10.9 °F 63% 30.41 in 10.0 mi Variable 3.5 mph - N/A   Clear
1:56 PM 24.1 °F - 15.1 °F 69% 30.39 in 10.0 mi Calm Calm - N/A   Clear
2:56 PM 25.0 °F 20.7 °F 14.0 °F 63% 30.38 in 10.0 mi Variable 3.5 mph - N/A   Clear
3:56 PM 27.0 °F 23.0 °F 16.0 °F 63% 30.36 in 10.0 mi West 3.5 mph - N/A   Clear
4:56 PM 28.0 °F - 14.0 °F 56% 30.35 in 10.0 mi Calm Calm - N/A   Clear
5:56 PM 28.0 °F - 15.1 °F 58% 30.34 in 10.0 mi Calm Calm - N/A   Clear
6:56 PM 25.0 °F 18.1 °F 17.1 °F 72% 30.33 in 10.0 mi East 5.8 mph - N/A   Clear
7:56 PM 21.0 °F 13.4 °F 16.0 °F 81% 30.33 in 10.0 mi East 5.8 mph - N/A   Clear
8:56 PM 19.0 °F 10.0 °F 14.0 °F 81% 30.33 in 10.0 mi ESE 6.9 mph - N/A   Clear
9:56 PM 19.0 °F 8.2 °F 14.0 °F 81% 30.33 in 10.0 mi SE 9.2 mph - N/A   Clear
10:56 PM 17.1 °F 6.6 °F 12.9 °F 84% 30.32 in 10.0 mi SSE 8.1 mph - N/A   Clear
11:56 PM 15.1 °F 5.2 °F 10.9 °F 84% 30.30 in 10.0 mi SSE 6.9 mph - N/A   Clear